[[{"header":{"parameterUnit":"m.s-1","parameterCategory":1,"la1":30.2991,"la2":30.254,"lo1":-89.0895,"lo2":-89.0444,"dy":0.0017,"dx":0.0017,"nx":28,"ny":28,"refTime":"2025-09-16T09:00:00:Z","depth":0,"parameterNumber":2,"parameterNumberName":"U-component_of_WINDS"},"data":[0,0,0,0,0,0,0,0,0,0,0,0,0,0,0,0,0,0,0,0,0,0,0,0,0,0,0,0,0,0,0,0,0,0,0,0,0,0,0,0,0,0,0,0,0,0,0,0,0,0,0,0,0,0,0,0,0,0,-0.4102,-0.4102,0,-0.4131,-0.4131,-0.4132,-0.413,-0.413,-0.4129,-0.4129,-0.4158,-0.4159,-0.4161,0,0,0,0,0,0,0,0,0,0,0,0,0,-0.4046,-0.4047,-0.4102,-0.4102,-0.4103,-0.4131,-0.4131,-0.4132,-0.413,-0.413,-0.4129,-0.4129,-0.4158,-0.4159,-0.4161,0,0,0,0,0,0,0,0,0,0,0,0,0,-0.4072,-0.4047,-0.4102,-0.4105,-0.4106,-0.4131,-0.4131,-0.4132,-0.413,-0.413,-0.4129,-0.4128,-0.4158,-0.4159,-0.4161,-0.4185,0,0,-0.4166,-0.4167,0,0,0,0,0,0,0,0,-0.407,-0.4074,-0.4104,-0.4105,-0.4106,-0.4126,-0.4122,-0.415,-0.413,-0.4121,-0.4129,-0.4128,-0.4148,-0.4151,-0.4157,-0.4186,-0.4187,-0.4167,-0.4168,-0.4168,-0.4169,0,0,0,0,0,0,0,-0.4069,-0.4073,-0.4113,-0.4105,-0.4106,-0.4106,-0.4109,-0.4127,-0.4138,-0.4122,-0.4122,-0.4125,-0.4148,-0.4156,-0.4158,-0.4188,-0.4166,-0.4168,-0.4169,-0.417,-0.4238,-0.4239,0,0,0,0,0,0,-0.4066,-0.4071,-0.4113,-0.4114,-0.4086,-0.4107,-0.411,-0.412,-0.4138,-0.414,-0.4126,-0.4125,-0.4153,-0.4156,-0.4159,-0.4189,-0.4168,-0.417,-0.4171,-0.4237,-0.4238,-0.4239,0,0,0,0,0,0,-0.4065,-0.407,-0.4111,-0.4093,-0.4098,-0.4109,-0.412,-0.4121,-0.4129,-0.414,-0.4142,-0.4131,-0.4153,-0.4157,-0.4179,-0.419,-0.4171,-0.4172,-0.4236,-0.4238,-0.4239,-0.4248,0,0,0,0,0,0,-0.4063,-0.4069,-0.4078,-0.4093,-0.4099,-0.413,-0.412,-0.4122,-0.4132,-0.4131,-0.4146,-0.4148,-0.4153,-0.4176,-0.418,-0.4192,-0.4174,-0.4235,-0.4237,-0.4238,-0.4247,-0.4249,-0.4251,0,0,0,0,0,-0.4061,-0.4079,-0.4079,-0.4084,-0.411,-0.4131,-0.4134,-0.4139,-0.4133,-0.4142,-0.415,-0.4148,-0.4188,-0.4178,-0.4183,-0.4195,-0.4235,-0.4236,-0.4238,-0.4245,-0.4249,-0.4251,0,0,0,0,0,0,-0.4065,-0.4081,-0.4081,-0.4104,-0.4116,-0.413,-0.4142,-0.4142,-0.4156,-0.4155,-0.416,-0.4163,-0.4185,-0.4192,-0.4181,-0.422,-0.421,-0.4213,-0.4214,-0.4217,-0.422,-0.4218,-0.4175,0,0,0,0,0,-0.4069,-0.4084,-0.4097,-0.4117,-0.4123,-0.4132,-0.414,-0.4143,-0.4156,-0.4161,-0.417,-0.4182,-0.4198,-0.4208,-0.4223,-0.4247,-0.4251,-0.4258,-0.4261,-0.4263,-0.4265,-0.428,-0.4283,-0.4244,-0.4244,-0.4244,0,0,-0.4077,-0.4087,-0.4097,-0.4118,-0.4128,-0.4143,-0.4136,-0.4153,-0.4165,-0.4163,-0.4185,-0.4192,-0.4206,-0.423,-0.4241,-0.4236,-0.4277,-0.4265,-0.4266,-0.4268,-0.4282,-0.4286,-0.4289,-0.4246,-0.4245,-0.4245,0,0,-0.4099,-0.4109,-0.4126,-0.4136,-0.4151,-0.4157,-0.4161,-0.4175,-0.418,-0.4202,-0.4202,-0.4216,-0.4242,-0.4252,-0.4261,-0.4288,-0.4287,-0.4293,-0.4305,-0.432,-0.4323,-0.4326,-0.4336,-0.434,-0.4295,-0.4295,-0.4295,0,-0.4107,-0.4131,-0.4135,-0.4153,-0.4163,-0.4162,-0.4181,-0.419,-0.4209,-0.4216,-0.421,-0.4244,-0.4253,-0.428,-0.4287,-0.4293,-0.4299,-0.4291,-0.4322,-0.4325,-0.4327,-0.4338,-0.4342,-0.4296,-0.4296,-0.4296,-0.4296,0,-0.4141,-0.4157,-0.417,-0.4188,-0.4199,-0.4217,-0.4224,-0.4235,-0.4237,-0.4243,-0.4266,-0.4277,-0.4295,-0.4301,-0.4302,-0.4328,-0.4325,-0.4321,-0.4312,-0.4332,-0.4342,-0.4345,-0.4297,-0.4297,-0.4296,-0.4296,0,0,-0.4167,-0.4188,-0.4193,-0.4202,-0.4218,-0.4231,-0.4249,-0.4266,-0.4276,-0.4288,-0.4304,-0.4327,-0.4323,-0.4333,-0.4336,-0.4348,-0.437,-0.4343,-0.4343,-0.4348,-0.44,-0.4404,-0.4409,-0.4369,-0.437,-0.4371,-0.4399,0,-0.4192,-0.4224,-0.4229,-0.4257,-0.4273,-0.4273,-0.4289,-0.4301,-0.4307,-0.4322,-0.4329,-0.4345,-0.4339,-0.4345,-0.4357,-0.4365,-0.4381,-0.4363,-0.4385,-0.4386,-0.4382,-0.4413,-0.4417,-0.4444,-0.4403,-0.4404,-0.4404,0,-0.4226,-0.424,-0.427,-0.4285,-0.4292,-0.4306,-0.4323,-0.4336,-0.435,-0.4354,-0.4365,-0.4367,-0.4386,-0.4375,-0.4402,-0.439,-0.4399,-0.4404,-0.4405,-0.4408,-0.4397,-0.4418,-0.4452,-0.4457,-0.441,-0.441,-0.4409,0,-0.4243,-0.427,-0.4292,-0.4299,-0.4317,-0.4327,-0.4335,-0.4348,-0.4358,-0.4373,-0.438,-0.4396,-0.4405,-0.4418,-0.4424,-0.4416,-0.4451,-0.4441,-0.4455,-0.4455,-0.4463,-0.4463,-0.45,-0.4467,-0.4467,-0.4467,-0.4467,0,-0.4271,-0.429,-0.43,-0.4313,-0.4334,-0.434,-0.436,-0.4368,-0.438,-0.4395,-0.4395,-0.441,-0.4416,-0.4432,-0.4436,-0.4458,-0.4462,-0.4466,-0.4468,-0.4467,-0.4467,-0.4474,-0.4472,-0.4468,-0.4468,-0.4468,-0.4468,0,-0.4295,-0.4302,-0.4326,-0.4341,-0.4345,-0.436,-0.4373,-0.4386,-0.4393,-0.4412,-0.4417,-0.4427,-0.4445,-0.4452,-0.4474,-0.4477,-0.4503,-0.4502,-0.4499,-0.4499,-0.4514,-0.4513,-0.4558,-0.4565,-0.4527,-0.4527,-0.4527,0,-0.4313,-0.4327,-0.4344,-0.4354,-0.4363,-0.4379,-0.439,-0.4395,-0.4407,-0.4424,-0.4435,-0.4453,-0.4468,-0.4497,-0.4507,-0.4524,-0.4524,-0.4539,-0.4527,-0.4526,-0.4526,-0.4525,-0.4527,-0.4541,-0.4542,-0.4542,-0.4542,0,-0.4345,-0.4348,-0.4363,-0.438,-0.4393,-0.4406,-0.442,-0.4428,-0.4436,-0.4448,-0.4467,-0.4479,-0.4502,-0.452,-0.4538,-0.4546,-0.4546,-0.4546,-0.4551,-0.4551,-0.4548,-0.4551,-0.4506,-0.4545,-0.4545,-0.4545,-0.4545,-0.4544,-0.4367,-0.438,-0.4394,-0.4411,-0.4422,-0.4434,-0.4448,-0.4456,-0.4472,-0.4491,-0.4493,-0.4514,-0.4528,-0.4552,-0.4561,-0.4577,-0.4573,-0.4579,-0.4581,-0.4583,-0.4584,-0.4545,-0.458,-0.458,-0.458,-0.458,-0.458,0,-0.4399,-0.4408,-0.4424,-0.4443,-0.4457,-0.4455,-0.447,-0.4482,-0.45,-0.4513,-0.4528,-0.455,-0.4567,-0.4578,-0.4597,-0.4608,-0.4608,-0.4612,-0.4612,-0.4614,-0.4586,-0.4581,-0.4612,-0.4612,-0.4612,-0.4612,-0.4612,-0.4612,-0.4418,-0.4441,-0.4445,-0.4473,-0.4482,-0.4503,-0.4511,-0.4523,-0.4533,-0.4558,-0.4573,-0.458,-0.4592,-0.4611,-0.4628,-0.4631,-0.4638,-0.4643,-0.4645,-0.4619,-0.4616,-0.4613,-0.4608,-0.4644,-0.4644,-0.4672,-0.4672,-0.4673]},{"header":{"parameterUnit":"m.s-1","parameterCategory":1,"la1":30.2991,"la2":30.254,"lo1":-89.0895,"lo2":-89.0444,"dy":0.0017,"dx":0.0017,"nx":28,"ny":28,"refTime":"2025-09-16T09:00:00:Z","depth":0,"parameterNumber":3,"parameterNumberName":"V-component_of_WINDS"},"data":[0,0,0,0,0,0,0,0,0,0,0,0,0,0,0,0,0,0,0,0,0,0,0,0,0,0,0,0,0,0,0,0,0,0,0,0,0,0,0,0,0,0,0,0,0,0,0,0,0,0,0,0,0,0,0,0,0,0,3.7536,3.7536,0,3.7545,3.7545,3.7545,3.7487,3.7486,3.7484,3.7483,3.7492,3.7493,3.7495,0,0,0,0,0,0,0,0,0,0,0,0,0,3.7466,3.7468,3.7536,3.7536,3.7536,3.7545,3.7545,3.7545,3.7488,3.7486,3.7484,3.7482,3.7491,3.7493,3.7495,0,0,0,0,0,0,0,0,0,0,0,0,0,3.7488,3.7468,3.7535,3.7508,3.7506,3.7545,3.7545,3.7545,3.7488,3.7486,3.7483,3.7481,3.749,3.7493,3.7495,3.7561,0,0,3.7503,3.7505,0,0,0,0,0,0,0,0,3.7487,3.7491,3.7512,3.751,3.7508,3.7512,3.7524,3.755,3.7489,3.7495,3.7483,3.748,3.75,3.7502,3.7509,3.7561,3.7561,3.7504,3.7505,3.7506,3.7507,0,0,0,0,0,0,0,3.7486,3.749,3.7539,3.7513,3.751,3.7495,3.7495,3.7528,3.7511,3.7494,3.749,3.7492,3.7499,3.7507,3.7509,3.7561,3.7504,3.7506,3.7508,3.7509,3.7664,3.7667,0,0,0,0,0,0,3.7488,3.7489,3.7539,3.7539,3.7491,3.7498,3.7499,3.7513,3.7511,3.7508,3.7494,3.7489,3.7503,3.7506,3.7509,3.7583,3.7506,3.7509,3.751,3.7662,3.7665,3.7667,0,0,0,0,0,0,3.7487,3.7493,3.7538,3.7513,3.7518,3.7502,3.7519,3.7515,3.7523,3.7511,3.7507,3.7505,3.7502,3.7505,3.7548,3.7582,3.751,3.7512,3.7659,3.7663,3.7666,3.7732,0,0,0,0,0,0,3.7485,3.7493,3.7518,3.7514,3.7519,3.7578,3.7521,3.7517,3.7528,3.7521,3.752,3.7518,3.75,3.7544,3.755,3.7584,3.7515,3.7655,3.766,3.7665,3.7726,3.7737,3.7747,0,0,0,0,0,3.7483,3.7537,3.7519,3.7526,3.7551,3.758,3.7583,3.7561,3.7531,3.7555,3.7547,3.7518,3.7578,3.7549,3.7555,3.7591,3.7653,3.7659,3.7664,3.7722,3.7735,3.7747,0,0,0,0,0,0,3.7545,3.7536,3.7517,3.7571,3.7577,3.757,3.76,3.7576,3.7591,3.7584,3.7557,3.7557,3.7603,3.7602,3.7569,3.7652,3.761,3.7617,3.7651,3.7664,3.7674,3.7672,3.7517,0,0,0,0,0,3.7565,3.759,3.7581,3.763,3.7633,3.7617,3.7628,3.7611,3.7616,3.7618,3.7613,3.7618,3.7637,3.7651,3.7669,3.7727,3.7724,3.7754,3.7765,3.7773,3.7779,3.7807,3.7819,3.7686,3.7686,3.7686,0,0,3.7607,3.7605,3.7623,3.7642,3.7644,3.7669,3.7619,3.7648,3.7666,3.7622,3.7661,3.7658,3.7661,3.7711,3.7733,3.7711,3.7815,3.778,3.7787,3.7788,3.7814,3.7826,3.7838,3.769,3.7689,3.7689,0,0,3.7696,3.7698,3.7737,3.774,3.7744,3.7732,3.7742,3.7739,3.7734,3.7773,3.7739,3.7761,3.7796,3.7799,3.7805,3.7894,3.7866,3.79,3.7953,3.798,3.7991,3.8,3.8029,3.804,3.7907,3.7907,3.7907,0,3.7747,3.7784,3.7761,3.7792,3.78,3.7761,3.78,3.7804,3.7814,3.782,3.7796,3.7838,3.7838,3.7886,3.7908,3.7915,3.7924,3.7899,3.7991,3.8,3.8008,3.8035,3.8047,3.7911,3.791,3.791,3.791,0,3.7846,3.7872,3.7903,3.7912,3.7925,3.796,3.7941,3.7956,3.7938,3.7928,3.7967,3.7965,3.7981,3.7991,3.7975,3.8037,3.8023,3.7996,3.7952,3.8025,3.805,3.806,3.7916,3.7915,3.7914,3.7913,0,0,3.7974,3.7968,3.798,3.7982,3.7983,3.8002,3.8035,3.805,3.8062,3.807,3.8095,3.8125,3.8099,3.8106,3.8089,3.8114,3.818,3.8083,3.8082,3.8099,3.8246,3.8265,3.8278,3.8163,3.8165,3.8167,3.8245,0,3.8058,3.8113,3.8092,3.8148,3.817,3.8133,3.8161,3.8164,3.8156,3.8173,3.8164,3.8185,3.815,3.8154,3.8177,3.8168,3.8209,3.8162,3.8185,3.8186,3.8182,3.8291,3.8312,3.8386,3.8255,3.8257,3.8258,0,3.8164,3.8174,3.8232,3.8226,3.8235,3.8261,3.8271,3.8289,3.8291,3.8283,3.829,3.8267,3.8298,3.8256,3.8296,3.8264,3.8273,3.827,3.8272,3.8271,3.8225,3.8291,3.8409,3.8419,3.8274,3.8272,3.8271,0,3.8248,3.8277,3.8314,3.8318,3.8313,3.8331,3.833,3.833,3.8339,3.8349,3.8354,3.8368,3.8374,3.8385,3.8366,3.8338,3.8408,3.8365,3.8401,3.8401,3.8416,3.8414,3.8534,3.8426,3.8425,3.8425,3.8425,0,3.8343,3.8379,3.8352,3.8375,3.8413,3.8389,3.8428,3.8423,3.8422,3.8443,3.8412,3.8432,3.8407,3.8424,3.8409,3.8443,3.8448,3.8441,3.8436,3.8442,3.8443,3.8446,3.8439,3.8428,3.8427,3.8427,3.8426,0,3.8442,3.8426,3.8464,3.8455,3.8454,3.8483,3.8475,3.8496,3.8485,3.8511,3.8516,3.85,3.8518,3.85,3.8519,3.8509,3.8553,3.8543,3.8552,3.8548,3.8584,3.858,3.8707,3.8722,3.8607,3.8608,3.8609,0,3.8503,3.8529,3.8523,3.8534,3.8535,3.8554,3.8563,3.8539,3.855,3.8553,3.8573,3.8588,3.8599,3.8631,3.862,3.8633,3.8621,3.8664,3.8622,3.8627,3.8618,3.8616,3.8617,3.8672,3.8674,3.8675,3.8676,0,3.8611,3.8601,3.8615,3.8625,3.8637,3.8644,3.865,3.8661,3.8636,3.865,3.8667,3.8676,3.8693,3.8709,3.8718,3.8717,3.8692,3.8689,3.8698,3.8703,3.8706,3.8702,3.8573,3.8686,3.8685,3.8684,3.8684,3.8683,3.8691,3.8712,3.871,3.8726,3.8727,3.8732,3.875,3.8741,3.8755,3.8767,3.8753,3.8774,3.8774,3.8784,3.8785,3.8801,3.8782,3.8796,3.8798,3.8801,3.8805,3.8706,3.8803,3.8803,3.8803,3.8802,3.8802,0,3.8795,3.8791,3.8806,3.8814,3.8826,3.8801,3.8805,3.8817,3.8836,3.8838,3.8849,3.8868,3.8883,3.8873,3.8885,3.89,3.8889,3.8904,3.8901,3.89,3.8822,3.8813,3.8912,3.8912,3.8912,3.8912,3.8912,3.8912,3.885,3.8883,3.8873,3.8905,3.8902,3.8922,3.8926,3.893,3.893,3.8953,3.8965,3.8958,3.8955,3.8966,3.8978,3.8975,3.8979,3.8998,3.8991,3.8917,3.8906,3.8896,3.8886,3.9,3.9,3.9067,3.9067,3.9068]}]]